FW4773 Weather Reports


Display with metric or nautical units.
time (UTC)temp
F
wind
direction
speed
MPH
gust
MPH
rain 1hr
in
rain 24hr
in
rain mn
in
humidity
%
barometer
mb
20260507163044 58 314 0.0 2.0 0.00 0.16 0.16 58 1014.3
20260507161551 57 184 0.0 3.0 0.00 0.16 0.16 56 1014.5
20260507160043 56 319 0.0 1.0 0.00 0.16 0.16 61 1014.5
20260507154543 56 7 0.0 4.0 0.00 0.18 0.16 60 1014.8
20260507153041 56 351 0.0 4.0 0.00 0.18 0.16 58 1014.8
20260507151536 56 310 1.0 5.0 0.00 0.18 0.16 61 1014.9
20260507150040 55 322 0.0 6.0 0.00 0.18 0.16 61 1015.0
20260507144531 56 3 1.0 5.0 0.00 0.26 0.16 62 1015.3
20260507143028 56 37 2.0 8.0 0.00 0.26 0.16 60 1015.3
20260507141525 56 358 2.0 7.0 0.00 0.26 0.16 61 1015.2
20260507140021 56 30 3.0 7.0 0.00 0.26 0.16 62 1015.4
20260507134519 55 24 4.0 8.0 0.00 0.26 0.16 64 1015.6
20260507133017 55 340 1.0 7.0 0.00 0.26 0.16 68 1015.5
20260507131523 55 101 2.0 8.0 0.00 0.26 0.16 70 1015.2
20260507130012 54 47 1.0 4.0 0.00 0.26 0.16 72 1015.5
20260507124509 55 11 1.0 7.0 0.00 0.26 0.16 71 1015.6
20260507123005 55 68 3.0 6.0 0.00 0.26 0.16 73 1015.3
20260507121504 55 353 1.0 5.0 0.00 0.26 0.16 76 1015.1
20260507114602 54 321 0.0 3.0 0.00 0.26 0.16 82 1015.2
20260507113056 54 357 0.0 0.0 0.00 0.26 0.16 83 1015.1
20260507111550 0 0.0 0.0 0.00 0.26 0.16 1015.0
20260507110044 0 0.0 0.0 0.00 0.26 0.16 1014.9
20260507104539 0 0.0 0.0 0.00 0.26 0.16 1014.6
20260507103033 0 351 0.0 4.0 0.00 0.26 0.16 1014.6
20260507101539 53 342 0.0 3.0 0.00 0.26 0.16 86 1014.3
20260507100044 53 21 0.0 2.0 0.00 0.26 0.16 88 1014.4
20260507094527 53 4 0.0 2.0 0.00 0.26 0.16 88 1014.5
20260507093025 53 5 0.0 0.0 0.00 0.26 0.16 88 1014.1
20260507091522 54 328 0.0 2.0 0.00 0.26 0.16 88 1014.2
20260507090020 54 46 1.0 5.0 0.00 0.26 0.16 87 1014.1
20260507084516 54 32 2.0 4.0 0.00 0.26 0.16 87 1014.1
20260507083013 55 298 0.0 3.0 0.00 0.26 0.16 88 1014.1
20260507081511 55 318 0.0 5.0 0.00 0.26 0.16 87 1013.5
20260507080006 55 344 1.0 7.0 0.00 0.26 0.16 87 1013.5
20260507074505 55 343 1.0 8.0 0.00 0.26 0.16 88 1013.1
20260507073104 55 49 1.0 8.0 0.00 0.26 0.16 90 1013.1
20260507071557 56 309 0.0 12.0 0.00 0.26 0.16 91 1012.6
20260507070055 56 316 0.0 5.0 0.00 0.26 0.16 91 1012.9
20260507064552 56 35 2.0 5.0 0.00 0.26 0.16 91 1012.6
20260507063051 56 319 3.0 10.0 0.02 0.26 0.16 91 1012.2
20260507061645 57 315 2.0 8.0 0.07 0.26 0.16 90 1012.3
20260507060041 57 354 1.0 8.0 0.13 0.26 0.16 90 1012.6
20260507054541 58 319 0.0 4.0 0.15 0.26 0.16 90 1012.7
20260507053032 59 295 1.0 6.0 0.14 0.24 0.14 90 1012.5
20260507051528 60 229 0.0 2.0 0.09 0.19 0.09 89 1012.8
20260507050033 61 104 0.0 2.0 0.02 0.12 0.02 85 1012.2
20260507044523 63 307 2.0 6.0 0.01 0.11 0.01 81 1012.8
20260507043013 64 224 0.0 2.0 0.00 0.10 0.00 79 1012.5
20260507041523 64 21 1.0 3.0 0.00 0.10 0.00 79 1012.3
20260507040006 64 8 2.0 10.0 0.00 0.10 0.10 79 1012.0
20260507034504 65 46 2.0 14.0 0.00 0.10 0.10 83 1012.2
20260507033002 65 17 0.0 2.0 0.00 0.10 0.10 87 1011.9
20260507031600 65 15 0.0 2.0 0.00 0.10 0.10 87 1011.7
20260507030100 65 340 0.0 1.0 0.00 0.10 0.10 88 1011.7
20260507024616 65 2 1.0 4.0 0.00 0.10 0.10 89 1011.5
20260507023054 65 207 0.0 0.0 0.00 0.10 0.10 89 1011.4
20260507021553 65 207 0.0 0.0 0.00 0.10 0.10 89 1011.2
20260507020106 65 207 0.0 1.0 0.00 0.10 0.10 88 1011.3
20260507014602 65 207 0.0 1.0 0.00 0.10 0.10 88 1011.2
20260507013050 65 207 0.0 1.0 0.00 0.10 0.10 88 1011.8
20260507011545 65 202 0.0 0.0 0.00 0.10 0.10 88 1011.9
20260507010146 65 202 0.0 0.0 0.00 0.10 0.10 88 1011.7
20260507004544 66 202 0.0 0.0 0.00 0.10 0.10 87 1011.3
20260507003040 66 202 0.0 0.0 0.00 0.10 0.10 85 1011.3
20260507001538 67 202 0.0 0.0 0.00 0.10 0.10 84 1011.3
20260507000036 67 202 0.0 0.0 0.00 0.10 0.10 82 1011.3
20260506234537 68 202 0.0 0.0 0.00 0.10 0.10 81 1011.1
20260506233032 68 202 0.0 1.0 0.00 0.10 0.10 80 1011.0
20260506231543 69 221 0.0 1.0 0.00 0.10 0.10 80 1010.6
20260506230034 69 201 0.0 2.0 0.00 0.10 0.10 79 1011.0
20260506224528 69 183 2.0 6.0 0.00 0.10 0.10 78 1010.5
20260506223040 69 205 2.0 9.0 0.00 0.10 0.10 78 1010.7
20260506221521 69 216 1.0 6.0 0.00 0.10 0.10 78 1010.7
20260506220024 69 232 2.0 7.0 0.00 0.10 0.10 77 1010.7
20260506214519 70 212 3.0 9.0 0.00 0.10 0.10 77 1010.8
20260506213016 70 197 3.0 9.0 0.00 0.10 0.10 76 1010.3
20260506211516 70 218 1.0 10.0 0.00 0.10 0.10 78 1010.4
20260506210016 70 190 5.0 7.0 0.00 0.10 0.10 77 1010.1
20260506204511 69 212 4.0 8.0 0.00 0.10 0.10 77 1010.2
20260506203009 69 222 3.0 8.0 0.00 0.10 0.10 78 1010.2
20260506201507 69 269 5.0 9.0 0.00 0.10 0.10 78 1010.4
20260506200006 69 215 2.0 6.0 0.00 0.10 0.10 78 1010.3
20260506194501 69 205 4.0 14.0 0.00 0.10 0.10 78 1010.2
20260506193101 69 249 3.0 9.0 0.00 0.10 0.10 79 1010.5
20260506191556 68 231 4.0 10.0 0.00 0.10 0.10 79 1010.6
20260506190054 68 224 5.0 10.0 0.00 0.10 0.10 78 1010.7
20260506184601 68 200 5.0 13.0 0.00 0.10 0.10 78 1010.8
20260506183058 68 197 4.0 12.0 0.00 0.10 0.10 78 1011.0
20260506181542 68 197 5.0 10.0 0.00 0.10 0.10 79 1011.2
20260506180041 67 204 6.0 11.0 0.00 0.10 0.10 80 1011.3
20260506174541 66 217 4.0 9.0 0.00 0.10 0.10 81 1011.4
20260506173034 65 237 4.0 14.0 0.00 0.10 0.10 82 1011.4
20260506171533 65 171 6.0 17.0 0.00 0.10 0.10 82 1011.6
20260506170033 65 244 7.0 12.0 0.00 0.10 0.10 84 1011.7
20260506164528 64 213 5.0 11.0 0.00 0.10 0.10 85 1011.8